Parsons, KS

2:51 PM CST on November 15, 2019 (GMT -0600)
Tri-City

Weather History for KPPF - July, 2019

Change the Weather History Date:

Friday, July 26, 2019

  Actual Average Record
Temperature  
Mean Temperature 75 °F -  
Max Temperature 86 °F 93 °F 105 °F (1952)
Min Temperature 64 °F 69 °F 55 °F (2004)
Cooling Degree Days 10    
Growing Degree Days 25 (Base 50)    
Moisture  
Dew Point 63 °F    
Average Humidity 67    
Maximum Humidity 87    
Minimum Humidity 46    
Precipitation  
Precipitation 0.00 in - - ()
Sea Level Pressure  
Sea Level Pressure 30.14 in    
Wind  
Wind Speed 4 mph (South)    
Max Wind Speed 9 mph    
Max Gust Speed -    
Visibility 10 miles    
Events      
Averages and records for this station are not official NWS values.
T = Trace of Precipitation, MM = Missing Value Source: NWS Daily Summary

Daily Weather History Graph

Daily Weather History Graph

Search for Another Location

Airport or City:

Astronomy

Jul. 26, 2019 Rise Set
Actual Time 6:21 AM CDT 8:35 PM CDT
Civil Twilight 5:52 AM CDT 9:04 PM CDT
Nautical Twilight 5:16 AM CDT 9:40 PM CDT
Astronomical Twilight 4:36 AM CDT 10:19 PM CDT
Moon 1:32 AM CDT (7/26) 3:23 PM CDT (7/26)
Length of Visible Light 15h 12m
Length of Day
14h 13m
Waning Crescent, 34% of the Moon is Illuminated
Jul 26
Waning Crescent
Jul 31
New
Aug 7
First Quarter
Aug 15
Full
Aug 23
Last Quarter

Hourly Weather History & Observations

Time (CDT) Temp. Heat Index Dew Point Humidity Pressure Visibility Wind Dir Wind Speed Gust Speed Precip Events Conditions
12:52 AM 70.0 °F - 63.0 °F 78% 30.12 in 10.0 mi Calm Calm - N/A   Clear
1:52 AM 66.9 °F - 62.1 °F 84% 30.13 in 10.0 mi Calm Calm - N/A   Clear
2:52 AM 69.1 °F - 62.1 °F 78% 30.12 in 10.0 mi South 3.5 mph - N/A   Clear
3:52 AM 68.0 °F - 61.0 °F 78% 30.12 in 10.0 mi South 5.8 mph - N/A   Clear
4:52 AM 66.0 °F - 61.0 °F 84% 30.13 in 10.0 mi Calm Calm - N/A   Clear
5:52 AM 66.0 °F - 61.0 °F 84% 30.14 in 10.0 mi Variable 3.5 mph - N/A   Clear
6:52 AM 64.9 °F - 60.1 °F 84% 30.15 in 10.0 mi Variable 3.5 mph - N/A   Clear
7:52 AM 69.1 °F - 62.1 °F 78% 30.17 in 10.0 mi South 5.8 mph - N/A   Clear
8:52 AM 73.0 °F - 63.0 °F 71% 30.18 in 10.0 mi SSW 6.9 mph - N/A   Clear
9:52 AM 75.9 °F - 63.0 °F 64% 30.19 in 10.0 mi SSW 9.2 mph - N/A   Clear
10:52 AM 79.0 °F - 63.0 °F 58% 30.19 in 10.0 mi SSW 9.2 mph - N/A   Clear
11:52 AM 82.0 °F 83.1 °F 63.0 °F 52% 30.18 in 10.0 mi SSW 6.9 mph - N/A   Clear
12:52 PM 84.0 °F 85.4 °F 64.0 °F 51% 30.17 in 10.0 mi SSW 9.2 mph - N/A   Clear
1:52 PM 84.0 °F 84.9 °F 63.0 °F 49% 30.16 in 10.0 mi SSW 9.2 mph - N/A   Clear
2:52 PM 84.9 °F 85.4 °F 62.1 °F 46% 30.14 in 10.0 mi South 6.9 mph - N/A   Clear
3:52 PM 86.0 °F 86.8 °F 63.0 °F 46% 30.13 in 10.0 mi South 6.9 mph - N/A   Clear
4:52 PM 84.9 °F 86.1 °F 64.0 °F 49% 30.12 in 10.0 mi South 6.9 mph - N/A   Clear
5:52 PM 84.0 °F 84.5 °F 62.1 °F 47% 30.12 in 10.0 mi South 6.9 mph - N/A   Clear
6:52 PM 82.9 °F 84.0 °F 63.0 °F 51% 30.11 in 10.0 mi South 6.9 mph - N/A   Clear
7:52 PM 80.1 °F 81.5 °F 63.0 °F 56% 30.11 in 10.0 mi SSE 3.5 mph - N/A   Clear
8:52 PM 72.0 °F - 64.0 °F 76% 30.12 in 10.0 mi Calm Calm - N/A   Clear
9:52 PM 68.0 °F - 64.0 °F 87% 30.14 in 10.0 mi Calm Calm - N/A   Clear
10:52 PM 66.9 °F - 63.0 °F 87% 30.15 in 10.0 mi Calm Calm - N/A   Clear
11:52 PM 70.0 °F - 61.0 °F 73% 30.16 in 10.0 mi Calm Calm - N/A   Clear